This is the latest recevied weather packets stored in our database for station/object KA8OAD-10. If no packets are shown the sender has not sent any weather packets the latest 10 day(s).
| Time | Temp. | Humidity | Pressure | Rain* | Wind** | Luminosity | Snow |
|---|---|---|---|---|---|---|---|
| 1777936352 | 21.11° C | 51% | 1002.5 hPa | 0 mm | - | 14 W/m² | - |
| 1777936052 | 21.11° C | 52% | 1002.4 hPa | 0 mm | - | 30 W/m² | - |
| 1777935750 | 21.11° C | 53% | 1002.5 hPa | 0 mm | - | 37 W/m² | - |
| 1777934852 | 21.11° C | 54% | 1002.6 hPa | 0 mm | - | 56 W/m² | - |
| 1777934552 | 21.11° C | 55% | 1002.8 hPa | 0 mm | - | 46 W/m² | - |
| 1777933650 | 21.11° C | 58% | 1002.9 hPa | 0 mm | - | 100 W/m² | - |
| 1777933053 | 21.67° C | 53% | 1002.9 hPa | 0 mm | - | 46 W/m² | - |
| 1777932752 | 21.67° C | 53% | 1002.9 hPa | 0 mm | - | 88 W/m² | - |
| 1777932452 | 21.67° C | 52% | 1002.9 hPa | 0 mm | - | 28 W/m² | - |
| 1777932151 | 21.67° C | 52% | 1002.9 hPa | 0 mm | - | 18 W/m² | - |
| 1777931851 | 21.67° C | 53% | 1003.1 hPa | 0 mm | - | 69 W/m² | - |
| 1777931550 | 21.67° C | 52% | 1003.1 hPa | 0 mm | - | 63 W/m² | - |
| 1777931249 | 22.22° C | 52% | 1003 hPa | 0 mm | - | 49 W/m² | - |
| 1777930953 | 22.22° C | 52% | 1003 hPa | 0 mm | - | 120 W/m² | - |
| 1777930652 | 22.22° C | 51% | 1003 hPa | 0 mm | - | 120 W/m² | - |
| 1777930052 | 22.22° C | 51% | 1003.1 hPa | 0 mm | - | 111 W/m² | - |
| 1777929751 | 22.22° C | 52% | 1003.1 hPa | 0 mm | - | 123 W/m² | - |
| 1777929451 | 22.22° C | 51% | 1003.1 hPa | 0 mm | - | 139 W/m² | - |
| 1777928252 | 22.22° C | 52% | 1003.3 hPa | 0 mm | - | 121 W/m² | - |
| 1777927651 | 22.22° C | 50% | 1003.4 hPa | 0 mm | - | 113 W/m² | - |
| 1777927351 | 22.78° C | 49% | 1003.5 hPa | 0 mm | - | 123 W/m² | - |
| 1777926749 | 22.22° C | 50% | 1003.4 hPa | 0 mm | - | 72 W/m² | - |
| 1777926449 | 22.22° C | 50% | 1003.4 hPa | 0 mm | - | 86 W/m² | - |
| 1777926153 | 22.22° C | 48% | 1003.5 hPa | 0 mm | - | 84 W/m² | - |
| 1777925852 | 22.22° C | 48% | 1003.7 hPa | 0 mm | - | 118 W/m² | - |
* Rain latest hour (hover to see other rain measurements)
** Current wind speed in m/s (hover to see current wind gust speed)